Location: Kellogg
(38.0159°N, 90.0546°W)
Time: 20:11:06
(UTC+00:00)

Transit 4A - Pass Details

Date: 13 September 2024
Orbit: 865 x 978 km, 66.8° (Epoch: 11 October)

Event Time Altitude Azimuth Distance (km) Brightness Sun altitude
Rises 16:53:04 0° 342° (NNW) 3,594 10.6 52.5°
Reaches altitude 10° 16:56:12 10° 357° (N) 2,667 10.1 52.8°
Maximum altitude 17:01:00 23° 48° (NE) 1,930 9.7 53.2°
Drops below altitude 10° 17:05:51 10° 98° (E) 2,706 10.7 53.6°
Sets 17:09:02 0° 113° (ESE) 3,660 11.3 53.8°
